STARLINK-2122 (47400 NORAD) Tracking and Keplerian Element Data

This shows tracking and keplerian element data for the satellite.

Feedback or suggestion? Click here.




ElementValue
Catalog47400
NameSTARLINK-2122
Epoch Orbit177
Epoch Day99.91667824
Epoch Year2021
RAAN181.7036
Inclination53.0544
Eccentricity0.0004183
Argument of Perigee8.462
Mean Anonmoly61.1621
Mean Motion15.62664505
Decay Rate9.455E-05
L11 47400U 21005BD 21099.91667824 .00009455 00000-0 10935-3 0 9991
L22 47400 53.0544 181.7036 0004183 8.4620 61.1621 15.62664505 1772

Live tracking and technical data element details for STARLINK-2122 (NORAD 47400). STARLINK-2122 can be tracked NOW for your location showing map with azimuth and elevation plus other details from your city location.

Track the satellite on the map from your city or location and see movement details for azimuth, elevation, latitude, longitude, range, height, and movement on the map or in text.







IsCatalogInMostPopularTable: catalog: 47400, numindb: 15
Update: records affected: 1



GetName: 47400 STARLINK-2122

Hit Count: updated at: Sat, 10 Apr 2021 19:37:29 GMT